Time,TemperatureF,DewpointF,PressureIn,WindDirection,WindDirectionDegrees,WindSpeedMPH,WindSpeedGustMPH,Humidity,HourlyPrecipIn,Conditions,Clouds,dailyrainin,SoftwareType,DateUTC
2013-05-01 00:02:00,53.0,45.0,-100.00,WSW,250,7.0,9.0,74,0.00,,,0.01,,2013-05-01 05:02:00,
2013-05-01 00:11:00,53.0,45.0,-100.00,West,260,11.0,15.0,73,0.00,,,0.01,,2013-05-01 05:11:00,
2013-05-01 00:21:00,52.0,45.0,-100.00,NW,310,8.0,13.0,72,0.00,,,0.01,,2013-05-01 05:21:00,
2013-05-01 00:32:00,52.0,45.0,-100.00,WNW,295,7.0,12.0,74,0.00,,,0.01,,2013-05-01 05:32:00,
2013-05-01 00:41:00,52.0,45.0,-100.00,WSW,255,7.0,9.0,78,0.00,,,0.01,,2013-05-01 05:41:00,
2013-05-01 00:52:00,51.0,46.0,-100.00,WNW,290,6.0,9.0,84,0.00,,,0.01,,2013-05-01 05:52:00,
2013-05-01 01:02:00,50.0,46.0,-100.00,WSW,250,6.0,8.0,88,0.00,,,0.01,,2013-05-01 06:02:00,
2013-05-01 01:11:00,50.0,46.0,-100.00,West,265,6.0,8.0,87,0.00,,,0.01,,2013-05-01 06:11:00,
2013-05-01 01:22:00,49.0,46.0,-100.00,West,280,9.0,14.0,91,0.01,,,0.01,,2013-05-01 06:22:00,
2013-05-01 01:32:00,49.0,46.0,-100.00,NW,315,11.0,14.0,91,0.01,,,0.01,,2013-05-01 06:32:00,
2013-05-01 01:42:00,49.0,45.0,-100.00,NW,320,12.0,16.0,86,0.01,,,0.01,,2013-05-01 06:42:00,
2013-05-01 01:51:00,49.0,45.0,-100.00,WNW,300,7.0,13.0,86,0.00,,,0.01,,2013-05-01 06:51:00,
2013-05-01 02:01:00,49.0,46.0,-100.00,West,260,6.0,11.0,88,0.00,,,0.01,,2013-05-01 07:01:00,
2013-05-01 02:11:00,49.0,46.0,-100.00,West,260,7.0,12.0,89,0.00,,,0.01,,2013-05-01 07:11:00,
2013-05-01 02:21:00,48.0,46.0,-100.00,West,270,4.0,6.0,95,0.00,,,0.01,,2013-05-01 07:21:00,
2013-05-01 02:32:00,48.0,46.0,-100.00,West,265,4.0,7.0,93,0.00,,,0.01,,2013-05-01 07:32:00,
2013-05-01 02:41:00,48.0,46.0,-100.00,SW,235,7.0,11.0,92,0.00,,,0.01,,2013-05-01 07:41:00,
2013-05-01 02:52:00,48.0,46.0,-100.00,WNW,295,7.0,9.0,92,0.00,,,0.01,,2013-05-01 07:52:00,
2013-05-01 03:01:00,48.0,46.0,-100.00,West,265,7.0,11.0,95,0.00,,,0.01,,2013-05-01 08:01:00,
2013-05-01 03:11:00,49.0,45.0,-100.00,West,280,9.0,14.0,87,0.00,,,0.01,,2013-05-01 08:11:00,
2013-05-01 03:21:00,48.0,45.0,-100.00,West,265,11.0,15.0,90,0.00,,,0.01,,2013-05-01 08:21:00,
2013-05-01 03:32:00,47.0,46.0,-100.00,West,265,14.0,20.0,94,0.00,,,0.01,,2013-05-01 08:32:00,
2013-05-01 03:42:00,47.0,45.0,-100.00,West,280,14.0,24.0,90,0.00,,,0.01,,2013-05-01 08:42:00,
2013-05-01 03:52:00,47.0,43.0,-100.00,WNW,285,11.0,20.0,87,0.00,,,0.01,,2013-05-01 08:52:00,
2013-05-01 04:01:00,47.0,43.0,-100.00,West,280,11.0,19.0,88,0.00,,,0.01,,2013-05-01 09:01:00,
2013-05-01 04:11:00,47.0,43.0,-100.00,WNW,285,15.0,24.0,86,0.00,,,0.01,,2013-05-01 09:11:00,
2013-05-01 04:21:00,46.0,43.0,-100.00,WNW,285,14.0,21.0,85,0.00,,,0.01,,2013-05-01 09:21:00,
2013-05-01 04:33:00,46.0,43.0,-100.00,WNW,295,19.0,26.0,85,0.00,,,0.01,,2013-05-01 09:33:00,
2013-05-01 04:42:00,46.0,43.0,-100.00,WNW,285,13.0,22.0,86,0.00,,,0.01,,2013-05-01 09:42:00,
2013-05-01 04:52:00,45.0,43.0,-100.00,WNW,285,13.0,27.0,87,0.00,,,0.01,,2013-05-01 09:52:00,
2013-05-01 05:02:00,45.0,41.0,-100.00,West,270,14.0,25.0,85,0.00,,,0.01,,2013-05-01 10:02:00,
2013-05-01 05:12:00,45.0,41.0,-100.00,West,280,12.0,21.0,86,0.00,,,0.01,,2013-05-01 10:12:00,
2013-05-01 05:22:00,45.0,41.0,-100.00,West,280,12.0,21.0,87,0.00,,,0.01,,2013-05-01 10:22:00,
2013-05-01 05:33:00,45.0,43.0,-100.00,WNW,295,12.0,18.0,88,0.00,,,0.01,,2013-05-01 10:33:00,
2013-05-01 05:42:00,45.0,43.0,-100.00,West,270,11.0,21.0,89,0.00,,,0.01,,2013-05-01 10:42:00,
2013-05-01 05:52:00,45.0,43.0,-100.00,West,270,9.0,21.0,89,0.00,,,0.01,,2013-05-01 10:52:00,
2013-05-01 06:02:00,45.0,43.0,-100.00,WNW,285,13.0,17.0,90,0.00,,,0.01,,2013-05-01 11:02:00,
2013-05-01 06:11:00,45.0,43.0,-100.00,West,280,12.0,21.0,92,0.00,,,0.01,,2013-05-01 11:11:00,
2013-05-01 06:22:00,45.0,43.0,-100.00,West,280,12.0,19.0,92,0.00,,,0.01,,2013-05-01 11:22:00,
2013-05-01 06:32:00,44.0,43.0,-100.00,West,280,10.0,19.0,94,0.00,,,0.01,,2013-05-01 11:32:00,
2013-05-01 06:42:00,44.0,43.0,-100.00,WNW,285,12.0,18.0,94,0.00,,,0.01,,2013-05-01 11:42:00,
2013-05-01 06:51:00,44.0,43.0,-100.00,WNW,285,12.0,20.0,95,0.00,,,0.01,,2013-05-01 11:51:00,
2013-05-01 07:01:00,44.0,43.0,-100.00,WNW,285,13.0,18.0,94,0.00,,,0.01,,2013-05-01 12:01:00,
2013-05-01 07:11:00,44.0,43.0,-100.00,West,275,13.0,17.0,94,0.00,,,0.01,,2013-05-01 12:11:00,
2013-05-01 07:21:00,44.0,43.0,-100.00,WNW,295,11.0,20.0,93,0.00,,,0.01,,2013-05-01 12:21:00,
2013-05-01 07:31:00,44.0,43.0,-100.00,WNW,290,12.0,17.0,95,0.00,,,0.01,,2013-05-01 12:31:00,
2013-05-01 07:41:00,44.0,43.0,-100.00,WNW,285,9.0,17.0,97,0.00,,,0.01,,2013-05-01 12:41:00,
2013-05-01 07:51:00,43.0,43.0,-100.00,West,270,15.0,23.0,98,0.00,,,0.01,,2013-05-01 12:51:00,
2013-05-01 08:11:00,42.0,41.0,-100.00,West,270,9.0,21.0,97,0.00,,,0.01,,2013-05-01 13:11:00,
2013-05-01 08:21:00,42.0,41.0,-100.00,West,265,10.0,19.0,98,0.00,,,0.01,,2013-05-01 13:21:00,
2013-05-01 08:32:00,41.0,41.0,-100.00,West,260,10.0,15.0,98,0.00,,,0.01,,2013-05-01 13:32:00,
2013-05-01 08:42:00,42.0,41.0,-100.00,WNW,285,14.0,20.0,97,0.00,,,0.01,,2013-05-01 13:42:00,
2013-05-01 08:52:00,41.0,41.0,-100.00,West,280,15.0,21.0,95,0.00,,,0.01,,2013-05-01 13:52:00,
2013-05-01 09:02:00,41.0,41.0,-100.00,West,280,16.0,21.0,95,0.00,,,0.01,,2013-05-01 14:02:00,
2013-05-01 09:11:00,41.0,41.0,-100.00,West,275,14.0,21.0,96,0.00,,,0.01,,2013-05-01 14:11:00,
2013-05-01 11:03:00,39.0,39.0,-100.00,WNW,285,15.0,22.0,99,0.00,,,0.01,,2013-05-01 16:03:00,
2013-05-01 11:12:00,39.0,39.0,-100.00,WNW,285,15.0,22.0,99,0.00,,,0.01,,2013-05-01 16:12:00,
2013-05-01 11:22:00,40.0,39.0,-100.00,West,280,13.0,22.0,97,0.00,,,0.01,,2013-05-01 16:22:00,
2013-05-01 11:31:00,40.0,39.0,-100.00,WNW,285,17.0,23.0,97,0.00,,,0.01,,2013-05-01 16:31:00,
2013-05-01 11:42:00,40.0,39.0,-100.00,West,270,14.0,21.0,97,0.00,,,0.01,,2013-05-01 16:42:00,
2013-05-01 11:53:00,40.0,39.0,-100.00,West,280,14.0,22.0,98,0.00,,,0.01,,2013-05-01 16:53:00,
2013-05-01 12:02:00,40.0,39.0,-100.00,West,275,14.0,19.0,98,0.00,,,0.01,,2013-05-01 17:02:00,
2013-05-01 12:12:00,40.0,39.0,-100.00,West,270,11.0,21.0,97,0.00,,,0.01,,2013-05-01 17:12:00,
2013-05-01 12:21:00,40.0,39.0,-100.00,WNW,290,17.0,27.0,96,0.00,,,0.01,,2013-05-01 17:21:00,
2013-05-01 12:31:00,41.0,39.0,-100.00,WNW,285,16.0,22.0,96,0.00,,,0.01,,2013-05-01 17:31:00,
2013-05-01 12:42:00,40.0,39.0,-100.00,West,275,17.0,24.0,95,0.00,,,0.01,,2013-05-01 17:42:00,
2013-05-01 12:52:00,41.0,39.0,-100.00,WNW,300,19.0,24.0,93,0.00,,,0.01,,2013-05-01 17:52:00,
2013-05-01 13:01:00,41.0,39.0,-100.00,WNW,290,17.0,25.0,93,0.00,,,0.01,,2013-05-01 18:01:00,
2013-05-01 13:11:00,41.0,39.0,-100.00,WNW,285,12.0,24.0,95,0.00,,,0.01,,2013-05-01 18:11:00,
2013-05-01 13:22:00,40.0,39.0,-100.00,West,280,13.0,22.0,95,0.00,,,0.01,,2013-05-01 18:22:00,
2013-05-01 13:32:00,39.0,37.0,-100.00,West,280,17.0,24.0,95,0.00,,,0.01,,2013-05-01 18:32:00,
2013-05-01 13:41:00,40.0,39.0,-100.00,West,275,17.0,27.0,95,0.00,,,0.01,,2013-05-01 18:41:00,
2013-05-01 13:52:00,39.0,37.0,-100.00,West,280,21.0,27.0,95,0.00,,,0.01,,2013-05-01 18:52:00,
2013-05-01 14:02:00,39.0,37.0,-100.00,WNW,285,15.0,27.0,95,0.00,,,0.01,,2013-05-01 19:02:00,
2013-05-01 14:11:00,39.0,37.0,-100.00,WNW,285,14.0,26.0,96,0.00,,,0.01,,2013-05-01 19:11:00,
2013-05-01 14:22:00,38.0,37.0,-100.00,WNW,285,15.0,25.0,95,0.00,,,0.01,,2013-05-01 19:22:00,
2013-05-01 14:32:00,37.0,36.0,-100.00,WNW,285,20.0,26.0,95,0.00,,,0.01,,2013-05-01 19:32:00,
2013-05-01 14:42:00,37.0,36.0,-100.00,WNW,290,17.0,26.0,95,0.00,,,0.01,,2013-05-01 19:42:00,
2013-05-01 14:52:00,38.0,37.0,-100.00,West,265,11.0,21.0,96,0.00,,,0.01,,2013-05-01 19:52:00,
2013-05-01 15:01:00,37.0,36.0,-100.00,WNW,285,13.0,22.0,95,0.00,,,0.01,,2013-05-01 20:01:00,
2013-05-01 15:11:00,37.0,36.0,-100.00,West,280,14.0,22.0,95,0.00,,,0.01,,2013-05-01 20:11:00,
2013-05-01 15:21:00,36.0,36.0,-100.00,West,280,15.0,24.0,97,0.00,,,0.01,,2013-05-01 20:21:00,
2013-05-01 15:32:00,36.0,36.0,-100.00,West,280,13.0,21.0,98,0.00,,,0.01,,2013-05-01 20:32:00,
2013-05-01 15:42:00,36.0,36.0,-100.00,West,270,11.0,20.0,98,0.00,,,0.01,,2013-05-01 20:42:00,
2013-05-01 15:52:00,36.0,36.0,-100.00,West,280,16.0,20.0,98,0.00,,,0.01,,2013-05-01 20:52:00,
2013-05-01 16:01:00,36.0,36.0,-100.00,WNW,290,12.0,21.0,99,0.00,,,0.01,,2013-05-01 21:01:00,
2013-05-01 16:11:00,36.0,36.0,-100.00,WNW,290,12.0,21.0,99,0.00,,,0.01,,2013-05-01 21:11:00,
2013-05-01 16:22:00,36.0,36.0,-100.00,WNW,290,12.0,21.0,99,0.00,,,0.01,,2013-05-01 21:22:00,
2013-05-01 16:32:00,36.0,36.0,-100.00,WNW,290,12.0,21.0,99,0.00,,,0.01,,2013-05-01 21:32:00,
2013-05-01 16:43:00,36.0,36.0,-100.00,WNW,290,12.0,21.0,99,0.00,,,0.01,,2013-05-01 21:43:00,
2013-05-01 17:23:00,35.0,34.0,-100.00,WNW,285,15.0,22.0,99,0.00,,,0.01,,2013-05-01 22:23:00,
2013-05-01 17:33:00,34.0,34.0,-100.00,WNW,290,14.0,19.0,99,0.00,,,0.01,,2013-05-01 22:33:00,
2013-05-01 17:42:00,34.0,34.0,-100.00,WNW,285,12.0,17.0,99,0.00,,,0.01,,2013-05-01 22:42:00,
2013-05-01 17:53:00,34.0,34.0,-100.00,WNW,290,11.0,15.0,99,0.00,,,0.02,,2013-05-01 22:53:00,
2013-05-01 18:11:00,33.0,32.0,-100.00,WNW,295,14.0,23.0,99,0.00,,,0.02,,2013-05-01 23:11:00,
2013-05-01 18:21:00,33.0,32.0,-100.00,West,280,13.0,24.0,99,0.01,,,0.02,,2013-05-01 23:21:00,
2013-05-01 18:32:00,33.0,32.0,-100.00,WNW,295,14.0,22.0,99,0.00,,,0.02,,2013-05-01 23:32:00,
2013-05-01 18:42:00,33.0,32.0,-100.00,West,280,14.0,27.0,99,0.00,,,0.02,,2013-05-01 23:42:00,
2013-05-01 18:52:00,33.0,32.0,-100.00,WNW,285,17.0,23.0,99,0.01,,,0.02,,2013-05-01 23:52:00,
2013-05-01 19:01:00,33.0,32.0,-100.00,WNW,290,13.0,21.0,99,0.01,,,0.02,,2013-05-02 00:01:00,
2013-05-01 19:11:00,33.0,32.0,-100.00,WNW,295,17.0,21.0,99,0.01,,,0.02,,2013-05-02 00:11:00,
2013-05-01 19:21:00,33.0,32.0,-100.00,West,280,14.0,21.0,99,0.01,,,0.02,,2013-05-02 00:21:00,
2013-05-01 19:32:00,33.0,32.0,-100.00,WNW,295,16.0,21.0,99,0.00,,,0.02,,2013-05-02 00:32:00,
2013-05-01 19:41:00,33.0,32.0,-100.00,WNW,300,12.0,19.0,99,0.00,,,0.02,,2013-05-02 00:41:00,
2013-05-01 21:02:00,33.0,32.0,-100.00,WNW,295,13.0,19.0,99,0.00,,,0.02,,2013-05-02 02:02:00,
2013-05-01 22:42:00,33.0,32.0,-100.00,WNW,295,16.0,22.0,99,0.01,,,0.03,,2013-05-02 03:42:00,
2013-05-01 22:52:00,33.0,32.0,-100.00,NW,305,16.0,23.0,99,0.01,,,0.03,,2013-05-02 03:52:00,
2013-05-01 23:03:00,33.0,32.0,-100.00,WNW,295,13.0,22.0,99,0.00,,,0.03,,2013-05-02 04:03:00,
2013-05-01 23:12:00,33.0,32.0,-100.00,WNW,295,16.0,22.0,99,0.00,,,0.03,,2013-05-02 04:12:00,
2013-05-01 23:23:00,33.0,32.0,-100.00,WNW,290,16.0,22.0,99,0.00,,,0.03,,2013-05-02 04:23:00,
2013-05-01 23:33:00,33.0,32.0,-100.00,WNW,290,18.0,24.0,99,0.00,,,0.03,,2013-05-02 04:33:00,
2013-05-01 23:42:00,32.0,32.0,-100.00,NW,310,16.0,24.0,99,0.00,,,0.03,,2013-05-02 04:42:00,
2013-05-01 23:52:00,32.0,32.0,-100.00,NW,310,16.0,24.0,99,0.00,,,0.03,,2013-05-02 04:52:00,